Time,TemperatureF,DewpointF,PressureIn,WindDirection,WindDirectionDegrees,WindSpeedMPH,WindSpeedGustMPH,Humidity,HourlyPrecipIn,Conditions,Clouds,dailyrainin,SoftwareType,DateUTC
2013-01-24 00:01:00,23.9,17.3,30.33,NW,304,2.0,-999.0,67,0.00,,,0.00,Custom/Perl,2013-01-24 06:01:00,
2013-01-24 00:06:00,23.7,17.1,30.34,NNE,18,1.0,-999.0,67,0.00,,,0.00,Custom/Perl,2013-01-24 06:06:00,
2013-01-24 00:11:00,23.6,17.0,30.34,North,359,2.0,-999.0,67,0.00,,,0.00,Custom/Perl,2013-01-24 06:11:00,
2013-01-24 00:16:00,23.5,16.9,30.34,WNW,300,3.0,-999.0,67,0.00,,,0.00,Custom/Perl,2013-01-24 06:16:00,
2013-01-24 00:22:00,23.3,16.7,30.34,NNE,27,3.0,-999.0,67,0.00,,,0.00,Custom/Perl,2013-01-24 06:22:00,
2013-01-24 00:27:00,23.2,16.8,30.35,North,11,3.0,-999.0,68,0.00,,,0.00,Custom/Perl,2013-01-24 06:27:00,
2013-01-24 00:32:00,23.0,16.6,30.34,NNE,27,3.0,-999.0,68,0.00,,,0.00,Custom/Perl,2013-01-24 06:32:00,
2013-01-24 00:37:00,22.8,16.4,30.34,NNW,333,1.0,-999.0,68,0.00,,,0.00,Custom/Perl,2013-01-24 06:37:00,
2013-01-24 00:43:00,22.7,16.5,30.34,NW,319,4.0,-999.0,69,0.00,,,0.00,Custom/Perl,2013-01-24 06:43:00,
2013-01-24 00:48:00,22.5,16.3,30.34,WNW,302,3.0,-999.0,69,0.00,,,0.00,Custom/Perl,2013-01-24 06:48:00,
2013-01-24 00:53:00,22.4,16.2,30.34,NNE,26,2.0,-999.0,69,0.00,,,0.00,Custom/Perl,2013-01-24 06:53:00,
2013-01-24 00:58:00,22.2,16.2,30.33,NNE,14,2.0,-999.0,70,0.00,,,0.00,Custom/Perl,2013-01-24 06:58:00,
2013-01-24 01:04:00,22.0,16.0,30.34,North,1,3.0,-999.0,70,0.00,,,0.00,Custom/Perl,2013-01-24 07:04:00,
2013-01-24 01:09:00,21.9,16.1,30.34,NW,317,2.0,-999.0,71,0.00,,,0.00,Custom/Perl,2013-01-24 07:09:00,
2013-01-24 01:14:00,21.8,16.0,30.33,NW,326,1.0,-999.0,71,0.00,,,0.00,Custom/Perl,2013-01-24 07:14:00,
2013-01-24 01:20:00,21.7,15.9,30.35,ENE,64,1.0,-999.0,71,0.00,,,0.00,Custom/Perl,2013-01-24 07:20:00,
2013-01-24 01:25:00,21.6,15.8,30.35,NNW,347,1.0,-999.0,71,0.00,,,0.00,Custom/Perl,2013-01-24 07:25:00,
2013-01-24 01:30:00,21.4,15.8,30.36,NW,324,0.0,-999.0,72,0.00,,,0.00,Custom/Perl,2013-01-24 07:30:00,
2013-01-24 01:36:00,21.2,15.8,30.35,NW,324,1.0,-999.0,73,0.00,,,0.00,Custom/Perl,2013-01-24 07:36:00,
2013-01-24 01:41:00,20.9,15.5,30.35,NW,317,0.0,-999.0,73,0.00,,,0.00,Custom/Perl,2013-01-24 07:41:00,
2013-01-24 01:46:00,20.7,15.5,30.35,ENE,65,2.0,-999.0,74,0.00,,,0.00,Custom/Perl,2013-01-24 07:46:00,
2013-01-24 01:51:00,20.5,15.3,30.35,North,4,1.0,-999.0,74,0.00,,,0.00,Custom/Perl,2013-01-24 07:51:00,
2013-01-24 01:57:00,20.4,15.2,30.36,NNW,344,2.0,-999.0,74,0.00,,,0.00,Custom/Perl,2013-01-24 07:57:00,
2013-01-24 02:02:00,20.2,15.0,30.36,NNE,19,1.0,-999.0,74,0.00,,,0.00,Custom/Perl,2013-01-24 08:02:00,
2013-01-24 02:07:00,20.0,15.0,30.36,North,5,2.0,-999.0,75,0.00,,,0.00,Custom/Perl,2013-01-24 08:07:00,
2013-01-24 02:12:00,19.9,14.9,30.36,West,278,1.0,-999.0,75,0.00,,,0.00,Custom/Perl,2013-01-24 08:12:00,
2013-01-24 02:18:00,19.7,14.7,30.36,NW,325,0.0,-999.0,75,0.00,,,0.00,Custom/Perl,2013-01-24 08:18:00,
2013-01-24 02:23:00,19.6,14.6,30.36,North,7,1.0,-999.0,75,0.00,,,0.00,Custom/Perl,2013-01-24 08:23:00,
2013-01-24 02:28:00,19.4,14.2,30.36,NNE,32,3.0,-999.0,74,0.00,,,0.00,Custom/Perl,2013-01-24 08:28:00,
2013-01-24 02:34:00,19.5,13.3,30.36,SSW,193,2.0,-999.0,69,0.00,,,0.00,Custom/Perl,2013-01-24 08:34:00,
2013-01-24 02:39:00,19.5,12.7,30.36,NNE,25,2.0,-999.0,66,0.00,,,0.00,Custom/Perl,2013-01-24 08:39:00,
2013-01-24 02:44:00,19.4,12.4,30.36,NNW,335,0.0,-999.0,65,0.00,,,0.00,Custom/Perl,2013-01-24 08:44:00,
2013-01-24 02:50:00,19.3,12.1,30.36,NNW,347,3.0,-999.0,64,0.00,,,0.00,Custom/Perl,2013-01-24 08:50:00,
2013-01-24 02:55:00,19.2,12.4,30.36,NW,316,1.0,-999.0,66,0.00,,,0.00,Custom/Perl,2013-01-24 08:55:00,
2013-01-24 03:00:00,18.9,12.1,30.36,North,358,2.0,-999.0,66,0.00,,,0.00,Custom/Perl,2013-01-24 09:00:00,
2013-01-24 03:06:00,18.6,11.8,30.36,WNW,297,4.0,-999.0,66,0.00,,,0.00,Custom/Perl,2013-01-24 09:06:00,
2013-01-24 03:11:00,18.5,11.5,30.36,NNW,327,3.0,-999.0,65,0.00,,,0.00,Custom/Perl,2013-01-24 09:11:00,
2013-01-24 03:16:00,18.1,10.9,30.36,NW,319,3.0,-999.0,64,0.00,,,0.00,Custom/Perl,2013-01-24 09:16:00,
2013-01-24 03:21:00,17.7,10.5,30.37,NNW,329,1.0,-999.0,64,0.00,,,0.00,Custom/Perl,2013-01-24 09:21:00,
2013-01-24 03:27:00,17.5,10.1,30.37,North,11,3.0,-999.0,63,0.00,,,0.00,Custom/Perl,2013-01-24 09:27:00,
2013-01-24 03:32:00,17.2,10.0,30.37,North,352,2.0,-999.0,64,0.00,,,0.00,Custom/Perl,2013-01-24 09:32:00,
2013-01-24 03:37:00,17.0,9.6,30.36,NNW,328,0.0,-999.0,63,0.00,,,0.00,Custom/Perl,2013-01-24 09:37:00,
2013-01-24 03:43:00,16.7,9.3,30.37,WNW,292,1.0,-999.0,63,0.00,,,0.00,Custom/Perl,2013-01-24 09:43:00,
2013-01-24 03:48:00,16.5,9.3,30.36,NNE,18,1.0,-999.0,64,0.00,,,0.00,Custom/Perl,2013-01-24 09:48:00,
2013-01-24 03:53:00,16.3,9.1,30.36,NNE,33,3.0,-999.0,64,0.00,,,0.00,Custom/Perl,2013-01-24 09:53:00,
2013-01-24 03:58:00,16.2,9.0,30.36,WSW,240,0.0,-999.0,64,0.00,,,0.00,Custom/Perl,2013-01-24 09:58:00,
2013-01-24 04:03:00,16.1,9.1,30.36,North,8,0.0,-999.0,65,0.00,,,0.00,Custom/Perl,2013-01-24 10:03:00,
2013-01-24 04:09:00,15.9,8.9,30.36,NE,41,4.0,-999.0,65,0.00,,,0.00,Custom/Perl,2013-01-24 10:09:00,
2013-01-24 04:14:00,15.8,9.0,30.36,NE,37,4.0,-999.0,66,0.00,,,0.00,Custom/Perl,2013-01-24 10:14:00,
2013-01-24 04:19:00,15.6,8.8,30.36,North,2,2.0,-999.0,66,0.00,,,0.00,Custom/Perl,2013-01-24 10:19:00,
2013-01-24 04:25:00,15.3,8.3,30.36,NNE,30,1.0,-999.0,65,0.00,,,0.00,Custom/Perl,2013-01-24 10:25:00,
2013-01-24 04:30:00,15.1,8.1,30.35,North,356,3.0,-999.0,65,0.00,,,0.00,Custom/Perl,2013-01-24 10:30:00,
2013-01-24 04:35:00,14.9,7.9,30.35,NW,317,0.0,-999.0,65,0.00,,,0.00,Custom/Perl,2013-01-24 10:35:00,
2013-01-24 04:41:00,14.8,7.8,30.35,North,5,2.0,-999.0,65,0.00,,,0.00,Custom/Perl,2013-01-24 10:41:00,
2013-01-24 04:46:00,14.7,7.7,30.36,East,79,6.0,-999.0,65,0.00,,,0.00,Custom/Perl,2013-01-24 10:46:00,
2013-01-24 04:51:00,14.5,7.5,30.36,South,189,1.0,-999.0,65,0.00,,,0.00,Custom/Perl,2013-01-24 10:51:00,
2013-01-24 04:56:00,14.4,7.4,30.36,ENE,74,6.0,-999.0,65,0.00,,,0.00,Custom/Perl,2013-01-24 10:56:00,
2013-01-24 05:01:00,14.3,7.1,30.36,NE,44,4.0,-999.0,64,0.00,,,0.00,Custom/Perl,2013-01-24 11:01:00,
2013-01-24 05:07:00,14.1,6.7,30.36,West,266,3.0,-999.0,63,0.00,,,0.00,Custom/Perl,2013-01-24 11:07:00,
2013-01-24 05:12:00,13.9,6.3,30.36,NW,307,1.0,-999.0,62,0.00,,,0.00,Custom/Perl,2013-01-24 11:12:00,
2013-01-24 05:17:00,13.7,6.1,30.36,SSW,210,3.0,-999.0,62,0.00,,,0.00,Custom/Perl,2013-01-24 11:17:00,
2013-01-24 05:23:00,13.5,6.1,30.36,North,5,1.0,-999.0,63,0.00,,,0.00,Custom/Perl,2013-01-24 11:23:00,
2013-01-24 05:28:00,13.3,5.9,30.36,NE,53,5.0,-999.0,63,0.00,,,0.00,Custom/Perl,2013-01-24 11:28:00,
2013-01-24 05:33:00,13.0,5.6,30.36,NE,34,4.0,-999.0,63,0.00,,,0.00,Custom/Perl,2013-01-24 11:33:00,
2013-01-24 05:39:00,12.8,5.6,30.36,NNE,12,1.0,-999.0,64,0.00,,,0.00,Custom/Perl,2013-01-24 11:39:00,
2013-01-24 05:44:00,12.6,5.4,30.35,North,10,1.0,-999.0,64,0.00,,,0.00,Custom/Perl,2013-01-24 11:44:00,
2013-01-24 05:49:00,12.4,5.4,30.35,NW,319,2.0,-999.0,65,0.00,,,0.00,Custom/Perl,2013-01-24 11:49:00,
2013-01-24 05:55:00,12.3,5.3,30.35,WSW,252,2.0,-999.0,65,0.00,,,0.00,Custom/Perl,2013-01-24 11:55:00,
2013-01-24 06:00:00,12.1,5.1,30.35,NNE,23,3.0,-999.0,65,0.00,,,0.00,Custom/Perl,2013-01-24 12:00:00,
2013-01-24 06:05:00,12.0,5.2,30.35,NNW,340,3.0,-999.0,66,0.00,,,0.00,Custom/Perl,2013-01-24 12:05:00,
2013-01-24 06:10:00,11.9,5.1,30.35,ENE,59,1.0,-999.0,66,0.00,,,0.00,Custom/Perl,2013-01-24 12:10:00,
2013-01-24 06:15:00,11.8,5.2,30.35,South,188,1.0,-999.0,67,0.00,,,0.00,Custom/Perl,2013-01-24 12:15:00,
2013-01-24 06:21:00,11.7,5.1,30.35,NE,55,4.0,-999.0,67,0.00,,,0.00,Custom/Perl,2013-01-24 12:21:00,
2013-01-24 06:26:00,11.6,5.0,30.35,SE,142,2.0,-999.0,67,0.00,,,0.00,Custom/Perl,2013-01-24 12:26:00,
2013-01-24 06:31:00,11.5,5.1,30.36,WSW,250,3.0,-999.0,68,0.00,,,0.00,Custom/Perl,2013-01-24 12:31:00,
2013-01-24 06:36:00,11.4,5.0,30.36,NNE,28,9.0,-999.0,68,0.00,,,0.00,Custom/Perl,2013-01-24 12:36:00,
2013-01-24 06:42:00,11.3,4.9,30.36,NNE,21,3.0,-999.0,68,0.00,,,0.00,Custom/Perl,2013-01-24 12:42:00,
2013-01-24 06:47:00,11.3,4.9,30.37,North,349,2.0,-999.0,68,0.00,,,0.00,Custom/Perl,2013-01-24 12:47:00,
2013-01-24 06:52:00,11.3,4.9,30.37,South,191,2.0,-999.0,68,0.00,,,0.00,Custom/Perl,2013-01-24 12:52:00,
2013-01-24 06:57:00,11.2,4.8,30.38,North,349,1.0,-999.0,68,0.00,,,0.00,Custom/Perl,2013-01-24 12:57:00,
2013-01-24 07:03:00,11.1,4.7,30.39,WNW,288,4.0,-999.0,68,0.00,,,0.00,Custom/Perl,2013-01-24 13:03:00,
2013-01-24 07:08:00,11.1,4.9,30.39,SW,225,1.0,-999.0,69,0.00,,,0.00,Custom/Perl,2013-01-24 13:08:00,
2013-01-24 07:13:00,11.0,4.8,30.39,NNE,13,6.0,-999.0,69,0.00,,,0.00,Custom/Perl,2013-01-24 13:13:00,
2013-01-24 07:18:00,10.9,4.7,30.39,East,88,2.0,-999.0,69,0.00,,,0.00,Custom/Perl,2013-01-24 13:18:00,
2013-01-24 07:24:00,10.8,4.6,30.38,NNW,332,2.0,-999.0,69,0.00,,,0.00,Custom/Perl,2013-01-24 13:24:00,
2013-01-24 07:29:00,10.7,4.5,30.38,NE,37,5.0,-999.0,69,0.00,,,0.00,Custom/Perl,2013-01-24 13:29:00,
2013-01-24 07:34:00,10.5,4.3,30.38,North,354,2.0,-999.0,69,0.00,,,0.00,Custom/Perl,2013-01-24 13:34:00,
2013-01-24 07:39:00,10.5,4.3,30.38,NW,306,1.0,-999.0,69,0.00,,,0.00,Custom/Perl,2013-01-24 13:39:00,
2013-01-24 07:45:00,10.4,4.4,30.38,West,269,2.0,-999.0,70,0.00,,,0.00,Custom/Perl,2013-01-24 13:45:00,
2013-01-24 07:50:00,10.4,4.4,30.38,North,350,1.0,-999.0,70,0.00,,,0.00,Custom/Perl,2013-01-24 13:50:00,
2013-01-24 07:55:00,10.4,4.4,30.38,North,10,1.0,-999.0,70,0.00,,,0.00,Custom/Perl,2013-01-24 13:55:00,
2013-01-24 08:00:00,10.5,4.5,30.38,NNE,16,3.0,-999.0,70,0.00,,,0.00,Custom/Perl,2013-01-24 14:00:00,
2013-01-24 08:06:00,10.6,4.4,30.38,WSW,247,0.0,-999.0,69,0.00,,,0.00,Custom/Perl,2013-01-24 14:06:00,
2013-01-24 08:11:00,10.7,4.5,30.37,West,267,0.0,-999.0,69,0.00,,,0.00,Custom/Perl,2013-01-24 14:11:00,
2013-01-24 08:16:00,10.9,3.9,30.37,West,271,1.0,-999.0,65,0.00,,,0.00,Custom/Perl,2013-01-24 14:16:00,
2013-01-24 08:21:00,11.0,3.8,30.37,SW,223,2.0,-999.0,64,0.00,,,0.00,Custom/Perl,2013-01-24 14:21:00,
2013-01-24 08:26:00,11.1,3.9,30.37,NNE,13,1.0,-999.0,64,0.00,,,0.00,Custom/Perl,2013-01-24 14:26:00,
2013-01-24 08:32:00,11.1,3.7,30.37,WSW,248,0.0,-999.0,63,0.00,,,0.00,Custom/Perl,2013-01-24 14:32:00,
2013-01-24 08:37:00,11.3,3.9,30.38,WSW,245,1.0,-999.0,63,0.00,,,0.00,Custom/Perl,2013-01-24 14:37:00,
2013-01-24 08:42:00,11.5,4.1,30.38,NW,308,0.0,-999.0,63,0.00,,,0.00,Custom/Perl,2013-01-24 14:42:00,
2013-01-24 08:47:00,11.6,4.2,30.38,WNW,295,0.0,-999.0,63,0.00,,,0.00,Custom/Perl,2013-01-24 14:47:00,
2013-01-24 08:53:00,11.9,4.5,30.38,NW,325,0.0,-999.0,63,0.00,,,0.00,Custom/Perl,2013-01-24 14:53:00,
2013-01-24 08:58:00,12.1,4.3,30.38,SSW,195,0.0,-999.0,61,0.00,,,0.00,Custom/Perl,2013-01-24 14:58:00,
2013-01-24 09:03:00,12.1,4.3,30.38,ENE,68,3.0,-999.0,61,0.00,,,0.00,Custom/Perl,2013-01-24 15:03:00,
2013-01-24 09:08:00,12.3,4.5,30.39,NNW,338,1.0,-999.0,61,0.00,,,0.00,Custom/Perl,2013-01-24 15:08:00,
2013-01-24 09:14:00,12.5,4.7,30.39,WSW,243,0.0,-999.0,61,0.00,,,0.00,Custom/Perl,2013-01-24 15:14:00,
2013-01-24 09:19:00,12.7,4.7,30.39,North,4,4.0,-999.0,60,0.00,,,0.00,Custom/Perl,2013-01-24 15:19:00,
2013-01-24 09:24:00,12.9,4.9,30.39,WSW,238,0.0,-999.0,60,0.00,,,0.00,Custom/Perl,2013-01-24 15:24:00,
2013-01-24 09:29:00,12.8,4.6,30.39,SW,234,3.0,-999.0,59,0.00,,,0.00,Custom/Perl,2013-01-24 15:29:00,
2013-01-24 09:35:00,13.1,4.9,30.39,NNW,328,0.0,-999.0,59,0.00,,,0.00,Custom/Perl,2013-01-24 15:35:00,
2013-01-24 09:40:00,13.5,5.3,30.40,NNE,20,2.0,-999.0,59,0.00,,,0.00,Custom/Perl,2013-01-24 15:40:00,
2013-01-24 09:45:00,13.7,5.3,30.39,WSW,240,1.0,-999.0,58,0.00,,,0.00,Custom/Perl,2013-01-24 15:45:00,
2013-01-24 09:50:00,13.9,5.5,30.39,ESE,105,8.0,-999.0,58,0.00,,,0.00,Custom/Perl,2013-01-24 15:50:00,
2013-01-24 09:56:00,13.8,5.2,30.39,NNE,31,2.0,-999.0,57,0.00,,,0.00,Custom/Perl,2013-01-24 15:56:00,
2013-01-24 10:01:00,14.3,5.7,30.39,WSW,254,0.0,-999.0,57,0.00,,,0.00,Custom/Perl,2013-01-24 16:01:00,
2013-01-24 10:06:00,14.7,6.1,30.39,South,190,2.0,-999.0,57,0.00,,,0.00,Custom/Perl,2013-01-24 16:06:00,
2013-01-24 10:11:00,14.8,6.0,30.39,West,260,1.0,-999.0,56,0.00,,,0.00,Custom/Perl,2013-01-24 16:11:00,
2013-01-24 10:16:00,15.0,6.2,30.39,ENE,68,3.0,-999.0,56,0.00,,,0.00,Custom/Perl,2013-01-24 16:16:00,
2013-01-24 10:21:00,15.5,6.5,30.39,WSW,249,1.0,-999.0,55,0.00,,,0.00,Custom/Perl,2013-01-24 16:21:00,
2013-01-24 10:27:00,15.8,6.8,30.40,NE,39,1.0,-999.0,55,0.00,,,0.00,Custom/Perl,2013-01-24 16:27:00,
2013-01-24 10:32:00,16.1,6.9,30.39,SW,225,2.0,-999.0,54,0.00,,,0.00,Custom/Perl,2013-01-24 16:32:00,
2013-01-24 10:37:00,16.2,7.0,30.39,SW,232,1.0,-999.0,54,0.00,,,0.00,Custom/Perl,2013-01-24 16:37:00,
2013-01-24 10:42:00,16.7,7.5,30.39,WNW,298,1.0,-999.0,54,0.00,,,0.00,Custom/Perl,2013-01-24 16:42:00,
2013-01-24 10:48:00,17.6,8.0,30.39,NNW,331,2.0,-999.0,52,0.00,,,0.00,Custom/Perl,2013-01-24 16:48:00,
2013-01-24 10:53:00,17.9,8.1,30.39,NNW,342,1.0,-999.0,51,0.00,,,0.00,Custom/Perl,2013-01-24 16:53:00,
2013-01-24 10:58:00,18.3,8.7,30.38,WNW,303,0.0,-999.0,52,0.00,,,0.00,Custom/Perl,2013-01-24 16:58:00,
2013-01-24 11:03:00,18.7,8.7,30.37,WNW,283,0.0,-999.0,50,0.00,,,0.00,Custom/Perl,2013-01-24 17:03:00,
2013-01-24 11:09:00,19.0,9.0,30.37,NNW,341,2.0,-999.0,50,0.00,,,0.00,Custom/Perl,2013-01-24 17:09:00,
2013-01-24 11:14:00,19.4,9.4,30.37,West,262,1.0,-999.0,50,0.00,,,0.00,Custom/Perl,2013-01-24 17:14:00,
2013-01-24 11:19:00,19.6,9.2,30.37,West,279,2.0,-999.0,48,0.00,,,0.00,Custom/Perl,2013-01-24 17:19:00,
2013-01-24 11:24:00,19.7,9.3,30.37,West,271,1.0,-999.0,48,0.00,,,0.00,Custom/Perl,2013-01-24 17:24:00,
2013-01-24 11:29:00,19.9,9.5,30.38,ENE,59,4.0,-999.0,48,0.00,,,0.00,Custom/Perl,2013-01-24 17:29:00,
2013-01-24 11:35:00,20.7,10.1,30.38,WSW,251,0.0,-999.0,47,0.00,,,0.00,Custom/Perl,2013-01-24 17:35:00,
2013-01-24 11:40:00,21.3,10.3,30.38,North,7,2.0,-999.0,45,0.00,,,0.00,Custom/Perl,2013-01-24 17:40:00,
2013-01-24 11:45:00,21.2,10.4,30.36,WSW,245,0.0,-999.0,46,0.00,,,0.00,Custom/Perl,2013-01-24 17:45:00,
2013-01-24 11:50:00,22.3,11.5,30.35,NW,314,1.0,-999.0,46,0.00,,,0.00,Custom/Perl,2013-01-24 17:50:00,
2013-01-24 11:56:00,23.0,11.6,30.34,NNE,18,1.0,-999.0,43,0.00,,,0.00,Custom/Perl,2013-01-24 17:56:00,
2013-01-24 12:01:00,22.2,10.8,30.33,NNW,345,3.0,-999.0,43,0.00,,,0.00,Custom/Perl,2013-01-24 18:01:00,
2013-01-24 12:06:00,22.1,10.7,30.33,West,276,0.0,-999.0,43,0.00,,,0.00,Custom/Perl,2013-01-24 18:06:00,
2013-01-24 12:11:00,22.1,10.9,30.33,WNW,297,1.0,-999.0,44,0.00,,,0.00,Custom/Perl,2013-01-24 18:11:00,
2013-01-24 12:17:00,22.2,10.8,30.32,NNE,13,1.0,-999.0,43,0.00,,,0.00,Custom/Perl,2013-01-24 18:17:00,
2013-01-24 12:22:00,22.4,11.2,30.32,WSW,250,0.0,-999.0,44,0.00,,,0.00,Custom/Perl,2013-01-24 18:22:00,
2013-01-24 12:27:00,23.0,11.4,30.31,SSE,165,0.0,-999.0,42,0.00,,,0.00,Custom/Perl,2013-01-24 18:27:00,
2013-01-24 12:32:00,23.4,11.8,30.30,WNW,283,1.0,-999.0,42,0.00,,,0.00,Custom/Perl,2013-01-24 18:32:00,
2013-01-24 12:38:00,23.5,11.7,30.30,WNW,283,1.0,-999.0,41,0.00,,,0.00,Custom/Perl,2013-01-24 18:38:00,
2013-01-24 12:43:00,23.4,11.8,30.29,ESE,118,2.0,-999.0,42,0.00,,,0.00,Custom/Perl,2013-01-24 18:43:00,
2013-01-24 12:48:00,23.3,11.7,30.28,WNW,292,1.0,-999.0,42,0.00,,,0.00,Custom/Perl,2013-01-24 18:48:00,
2013-01-24 12:53:00,23.2,11.8,30.27,SW,219,1.0,-999.0,43,0.00,,,0.00,Custom/Perl,2013-01-24 18:53:00,
2013-01-24 12:59:00,23.5,12.1,30.27,West,281,2.0,-999.0,43,0.00,,,0.00,Custom/Perl,2013-01-24 18:59:00,
2013-01-24 13:04:00,23.9,12.3,30.26,NW,323,0.0,-999.0,42,0.00,,,0.00,Custom/Perl,2013-01-24 19:04:00,
2013-01-24 13:09:00,24.0,12.4,30.26,West,273,1.0,-999.0,42,0.00,,,0.00,Custom/Perl,2013-01-24 19:09:00,
2013-01-24 13:14:00,24.4,12.6,30.25,ENE,77,1.0,-999.0,41,0.00,,,0.00,Custom/Perl,2013-01-24 19:14:00,
2013-01-24 13:19:00,25.1,13.3,30.25,WSW,247,1.0,-999.0,41,0.00,,,0.00,Custom/Perl,2013-01-24 19:19:00,
2013-01-24 13:25:00,25.2,13.4,30.24,West,269,2.0,-999.0,41,0.00,,,0.00,Custom/Perl,2013-01-24 19:25:00,
2013-01-24 13:30:00,25.1,12.7,30.24,West,270,4.0,-999.0,38,0.00,,,0.00,Custom/Perl,2013-01-24 19:30:00,
2013-01-24 13:35:00,25.9,13.7,30.24,WNW,286,1.0,-999.0,39,0.00,,,0.00,Custom/Perl,2013-01-24 19:35:00,
2013-01-24 13:40:00,26.1,13.7,30.24,West,278,1.0,-999.0,38,0.00,,,0.00,Custom/Perl,2013-01-24 19:40:00,
2013-01-24 13:45:00,26.3,13.7,30.24,NNE,15,2.0,-999.0,37,0.00,,,0.00,Custom/Perl,2013-01-24 19:45:00,
2013-01-24 13:51:00,26.0,13.4,30.23,WNW,297,2.0,-999.0,37,0.00,,,0.00,Custom/Perl,2013-01-24 19:51:00,
2013-01-24 13:56:00,26.2,13.8,30.23,WSW,248,4.0,-999.0,38,0.00,,,0.00,Custom/Perl,2013-01-24 19:56:00,
2013-01-24 14:01:00,26.4,14.0,30.23,WNW,293,1.0,-999.0,38,0.00,,,0.00,Custom/Perl,2013-01-24 20:01:00,
2013-01-24 14:06:00,26.9,14.3,30.22,West,262,1.0,-999.0,37,0.00,,,0.00,Custom/Perl,2013-01-24 20:06:00,
2013-01-24 14:12:00,27.0,14.4,30.22,WNW,297,1.0,-999.0,37,0.00,,,0.00,Custom/Perl,2013-01-24 20:12:00,
2013-01-24 14:17:00,27.2,14.6,30.21,SW,229,1.0,-999.0,37,0.00,,,0.00,Custom/Perl,2013-01-24 20:17:00,
2013-01-24 14:22:00,27.0,14.4,30.20,NNE,19,2.0,-999.0,37,0.00,,,0.00,Custom/Perl,2013-01-24 20:22:00,
2013-01-24 14:27:00,26.9,14.3,30.20,NNW,334,0.0,-999.0,37,0.00,,,0.00,Custom/Perl,2013-01-24 20:27:00,
2013-01-24 14:32:00,26.8,14.2,30.20,West,276,1.0,-999.0,37,0.00,,,0.00,Custom/Perl,2013-01-24 20:32:00,
2013-01-24 14:38:00,26.9,14.3,30.20,NW,325,2.0,-999.0,37,0.00,,,0.00,Custom/Perl,2013-01-24 20:38:00,
2013-01-24 14:43:00,27.1,14.5,30.20,SW,236,1.0,-999.0,37,0.00,,,0.00,Custom/Perl,2013-01-24 20:43:00,
2013-01-24 14:48:00,27.1,14.5,30.20,West,280,1.0,-999.0,37,0.00,,,0.00,Custom/Perl,2013-01-24 20:48:00,
2013-01-24 14:53:00,27.3,14.7,30.20,SW,226,0.0,-999.0,37,0.00,,,0.00,Custom/Perl,2013-01-24 20:53:00,
2013-01-24 14:58:00,27.7,14.9,30.20,West,273,1.0,-999.0,36,0.00,,,0.00,Custom/Perl,2013-01-24 20:58:00,
2013-01-24 15:04:00,27.4,14.8,30.19,ESE,104,0.0,-999.0,37,0.00,,,0.00,Custom/Perl,2013-01-24 21:04:00,
2013-01-24 15:09:00,27.3,14.7,30.20,WNW,282,1.0,-999.0,37,0.00,,,0.00,Custom/Perl,2013-01-24 21:09:00,
2013-01-24 15:14:00,27.3,14.7,30.19,WNW,287,1.0,-999.0,37,0.00,,,0.00,Custom/Perl,2013-01-24 21:14:00,
2013-01-24 15:19:00,27.4,14.8,30.18,WNW,291,1.0,-999.0,37,0.00,,,0.00,Custom/Perl,2013-01-24 21:19:00,
2013-01-24 15:25:00,27.3,14.9,30.17,WSW,243,1.0,-999.0,38,0.00,,,0.00,Custom/Perl,2013-01-24 21:25:00,
2013-01-24 15:30:00,27.4,14.8,30.17,WSW,250,1.0,-999.0,37,0.00,,,0.00,Custom/Perl,2013-01-24 21:30:00,
2013-01-24 15:35:00,27.2,14.6,30.16,WSW,237,1.0,-999.0,37,0.00,,,0.00,Custom/Perl,2013-01-24 21:35:00,
2013-01-24 15:40:00,27.1,14.7,30.17,WNW,300,1.0,-999.0,38,0.00,,,0.00,Custom/Perl,2013-01-24 21:40:00,
2013-01-24 15:45:00,27.1,14.7,30.17,SW,233,0.0,-999.0,38,0.00,,,0.00,Custom/Perl,2013-01-24 21:45:00,
2013-01-24 15:51:00,27.1,14.7,30.17,West,271,0.0,-999.0,38,0.00,,,0.00,Custom/Perl,2013-01-24 21:51:00,
2013-01-24 15:56:00,27.0,14.6,30.16,WSW,252,0.0,-999.0,38,0.00,,,0.00,Custom/Perl,2013-01-24 21:56:00,
2013-01-24 16:01:00,27.2,15.0,30.16,WSW,246,0.0,-999.0,39,0.00,,,0.00,Custom/Perl,2013-01-24 22:01:00,
2013-01-24 16:06:00,27.2,14.8,30.16,NW,304,0.0,-999.0,38,0.00,,,0.00,Custom/Perl,2013-01-24 22:06:00,
2013-01-24 16:12:00,27.2,14.8,30.17,WSW,257,0.0,-999.0,38,0.00,,,0.00,Custom/Perl,2013-01-24 22:12:00,
2013-01-24 16:17:00,27.4,15.2,30.17,West,266,1.0,-999.0,39,0.00,,,0.00,Custom/Perl,2013-01-24 22:17:00,
2013-01-24 16:22:00,27.2,14.8,30.16,WSW,238,1.0,-999.0,38,0.00,,,0.00,Custom/Perl,2013-01-24 22:22:00,
2013-01-24 16:27:00,27.0,14.8,30.16,WNW,297,0.0,-999.0,39,0.00,,,0.00,Custom/Perl,2013-01-24 22:27:00,
2013-01-24 16:33:00,27.0,14.8,30.16,WNW,300,1.0,-999.0,39,0.00,,,0.00,Custom/Perl,2013-01-24 22:33:00,
2013-01-24 16:38:00,26.9,14.7,30.16,WSW,243,0.0,-999.0,39,0.00,,,0.00,Custom/Perl,2013-01-24 22:38:00,
2013-01-24 16:43:00,26.9,14.7,30.16,WNW,284,1.0,-999.0,39,0.00,,,0.00,Custom/Perl,2013-01-24 22:43:00,
2013-01-24 16:48:00,26.9,14.9,30.15,WNW,294,0.0,-999.0,40,0.00,,,0.00,Custom/Perl,2013-01-24 22:48:00,
2013-01-24 16:54:00,26.9,14.7,30.15,West,280,0.0,-999.0,39,0.00,,,0.00,Custom/Perl,2013-01-24 22:54:00,
2013-01-24 16:59:00,26.7,14.7,30.16,West,274,0.0,-999.0,40,0.00,,,0.00,Custom/Perl,2013-01-24 22:59:00,
2013-01-24 17:04:00,26.8,14.8,30.15,West,281,2.0,-999.0,40,0.00,,,0.00,Custom/Perl,2013-01-24 23:04:00,
2013-01-24 17:09:00,26.7,14.9,30.15,WNW,297,0.0,-999.0,41,0.00,,,0.00,Custom/Perl,2013-01-24 23:09:00,
2013-01-24 17:14:00,26.6,14.8,30.15,NW,309,0.0,-999.0,41,0.00,,,0.00,Custom/Perl,2013-01-24 23:14:00,
2013-01-24 17:20:00,26.5,14.7,30.15,West,279,1.0,-999.0,41,0.00,,,0.00,Custom/Perl,2013-01-24 23:20:00,
2013-01-24 17:25:00,26.5,14.9,30.15,NW,304,1.0,-999.0,42,0.00,,,0.00,Custom/Perl,2013-01-24 23:25:00,
2013-01-24 17:30:00,26.3,14.7,30.15,West,259,1.0,-999.0,42,0.00,,,0.00,Custom/Perl,2013-01-24 23:30:00,
2013-01-24 17:35:00,26.2,14.6,30.15,WSW,256,1.0,-999.0,42,0.00,,,0.00,Custom/Perl,2013-01-24 23:35:00,
2013-01-24 17:41:00,26.2,14.6,30.15,West,269,1.0,-999.0,42,0.00,,,0.00,Custom/Perl,2013-01-24 23:41:00,
2013-01-24 17:46:00,26.1,14.5,30.13,West,281,1.0,-999.0,42,0.00,,,0.00,Custom/Perl,2013-01-24 23:46:00,
2013-01-24 17:51:00,26.1,14.7,30.13,NW,304,1.0,-999.0,43,0.00,,,0.00,Custom/Perl,2013-01-24 23:51:00,
2013-01-24 17:56:00,26.0,14.6,30.13,West,279,1.0,-999.0,43,0.00,,,0.00,Custom/Perl,2013-01-24 23:56:00,
2013-01-24 18:01:00,26.0,14.6,30.13,West,266,1.0,-999.0,43,0.00,,,0.00,Custom/Perl,2013-01-25 00:01:00,
2013-01-24 18:07:00,25.9,14.7,30.12,WNW,283,0.0,-999.0,44,0.00,,,0.00,Custom/Perl,2013-01-25 00:07:00,
2013-01-24 18:12:00,25.9,14.7,30.12,West,265,0.0,-999.0,44,0.00,,,0.00,Custom/Perl,2013-01-25 00:12:00,
2013-01-24 18:17:00,25.9,14.7,30.14,West,279,0.0,-999.0,44,0.00,,,0.00,Custom/Perl,2013-01-25 00:17:00,
2013-01-24 18:22:00,25.9,14.7,30.12,NW,305,1.0,-999.0,44,0.00,,,0.00,Custom/Perl,2013-01-25 00:22:00,
2013-01-24 18:28:00,25.8,14.6,30.13,WNW,288,1.0,-999.0,44,0.00,,,0.00,Custom/Perl,2013-01-25 00:28:00,
2013-01-24 18:33:00,25.8,14.8,30.13,West,272,1.0,-999.0,45,0.00,,,0.00,Custom/Perl,2013-01-25 00:33:00,
2013-01-24 18:38:00,25.8,14.8,30.12,WNW,287,0.0,-999.0,45,0.00,,,0.00,Custom/Perl,2013-01-25 00:38:00,
2013-01-24 18:43:00,25.8,15.0,30.12,West,263,0.0,-999.0,46,0.00,,,0.00,Custom/Perl,2013-01-25 00:43:00,
2013-01-24 18:48:00,25.7,14.7,30.12,NW,309,1.0,-999.0,45,0.00,,,0.00,Custom/Perl,2013-01-25 00:48:00,
2013-01-24 18:54:00,25.7,14.9,30.13,WNW,300,1.0,-999.0,46,0.00,,,0.00,Custom/Perl,2013-01-25 00:54:00,
2013-01-24 18:59:00,25.7,14.9,30.12,SW,232,0.0,-999.0,46,0.00,,,0.00,Custom/Perl,2013-01-25 00:59:00,
2013-01-24 19:04:00,25.7,14.9,30.13,WNW,297,0.0,-999.0,46,0.00,,,0.00,Custom/Perl,2013-01-25 01:04:00,
2013-01-24 19:09:00,25.7,14.9,30.14,NW,307,1.0,-999.0,46,0.00,,,0.00,Custom/Perl,2013-01-25 01:09:00,
2013-01-24 19:15:00,25.6,14.8,30.15,WNW,282,0.0,-999.0,46,0.00,,,0.00,Custom/Perl,2013-01-25 01:15:00,
2013-01-24 19:20:00,25.7,15.1,30.15,WNW,299,0.0,-999.0,47,0.00,,,0.00,Custom/Perl,2013-01-25 01:20:00,
2013-01-24 19:25:00,25.7,14.9,30.16,WSW,258,0.0,-999.0,46,0.00,,,0.00,Custom/Perl,2013-01-25 01:25:00,
2013-01-24 19:30:00,25.7,15.1,30.15,WSW,255,1.0,-999.0,47,0.00,,,0.00,Custom/Perl,2013-01-25 01:30:00,
2013-01-24 19:35:00,25.7,15.1,30.15,West,266,1.0,-999.0,47,0.00,,,0.00,Custom/Perl,2013-01-25 01:35:00,
2013-01-24 19:41:00,25.7,15.1,30.14,West,259,0.0,-999.0,47,0.00,,,0.00,Custom/Perl,2013-01-25 01:41:00,
2013-01-24 19:46:00,25.7,15.1,30.13,NW,314,1.0,-999.0,47,0.00,,,0.00,Custom/Perl,2013-01-25 01:46:00,
2013-01-24 19:51:00,25.7,15.1,30.13,WNW,289,0.0,-999.0,47,0.00,,,0.00,Custom/Perl,2013-01-25 01:51:00,
2013-01-24 19:56:00,25.7,15.1,30.14,West,271,0.0,-999.0,47,0.00,,,0.00,Custom/Perl,2013-01-25 01:56:00,
2013-01-24 20:02:00,25.7,15.1,30.14,West,275,0.0,-999.0,47,0.00,,,0.00,Custom/Perl,2013-01-25 02:02:00,
2013-01-24 20:07:00,25.7,15.1,30.14,West,268,0.0,-999.0,47,0.00,,,0.00,Custom/Perl,2013-01-25 02:07:00,
2013-01-24 20:12:00,25.7,15.3,30.14,SW,226,0.0,-999.0,48,0.00,,,0.00,Custom/Perl,2013-01-25 02:12:00,
2013-01-24 20:17:00,25.7,15.3,30.14,West,278,0.0,-999.0,48,0.00,,,0.00,Custom/Perl,2013-01-25 02:17:00,
2013-01-24 20:22:00,25.8,15.4,30.13,WSW,238,0.0,-999.0,48,0.00,,,0.00,Custom/Perl,2013-01-25 02:22:00,
2013-01-24 20:28:00,25.8,15.4,30.14,WSW,240,0.0,-999.0,48,0.00,,,0.00,Custom/Perl,2013-01-25 02:28:00,
2013-01-24 20:33:00,25.8,15.4,30.13,SSW,200,0.0,-999.0,48,0.00,,,0.00,Custom/Perl,2013-01-25 02:33:00,
2013-01-24 20:38:00,25.8,15.6,30.13,West,275,0.0,-999.0,49,0.00,,,0.00,Custom/Perl,2013-01-25 02:38:00,
2013-01-24 20:43:00,25.8,15.4,30.13,WSW,240,1.0,-999.0,48,0.00,,,0.00,Custom/Perl,2013-01-25 02:43:00,
2013-01-24 20:49:00,25.8,15.6,30.12,WSW,240,0.0,-999.0,49,0.00,,,0.00,Custom/Perl,2013-01-25 02:49:00,
2013-01-24 20:54:00,25.8,15.6,30.12,WNW,292,0.0,-999.0,49,0.00,,,0.00,Custom/Perl,2013-01-25 02:54:00,
2013-01-24 20:59:00,25.9,15.7,30.11,WNW,290,0.0,-999.0,49,0.00,,,0.00,Custom/Perl,2013-01-25 02:59:00,
2013-01-24 21:04:00,25.8,15.6,30.11,West,269,1.0,-999.0,49,0.00,,,0.00,Custom/Perl,2013-01-25 03:04:00,
2013-01-24 21:09:00,25.8,15.6,30.10,WNW,297,1.0,-999.0,49,0.00,,,0.00,Custom/Perl,2013-01-25 03:09:00,
2013-01-24 21:15:00,25.8,15.6,30.10,WNW,285,0.0,-999.0,49,0.00,,,0.00,Custom/Perl,2013-01-25 03:15:00,
2013-01-24 21:20:00,25.8,15.6,30.10,WNW,285,1.0,-999.0,49,0.00,,,0.00,Custom/Perl,2013-01-25 03:20:00,
2013-01-24 21:25:00,25.8,15.6,30.10,NW,315,0.0,-999.0,49,0.00,,,0.00,Custom/Perl,2013-01-25 03:25:00,
2013-01-24 21:30:00,25.9,15.7,30.10,West,275,0.0,-999.0,49,0.00,,,0.00,Custom/Perl,2013-01-25 03:30:00,
2013-01-24 21:35:00,25.9,15.9,30.10,West,264,0.0,-999.0,50,0.00,,,0.00,Custom/Perl,2013-01-25 03:35:00,
2013-01-24 21:41:00,25.9,15.9,30.10,WNW,291,0.0,-999.0,50,0.00,,,0.00,Custom/Perl,2013-01-25 03:41:00,
2013-01-24 21:46:00,26.0,15.8,30.10,WSW,250,0.0,-999.0,49,0.00,,,0.00,Custom/Perl,2013-01-25 03:46:00,
2013-01-24 21:51:00,26.0,15.8,30.11,WSW,256,0.0,-999.0,49,0.00,,,0.00,Custom/Perl,2013-01-25 03:51:00,
2013-01-24 21:56:00,26.0,15.8,30.11,WSW,257,0.0,-999.0,49,0.00,,,0.00,Custom/Perl,2013-01-25 03:56:00,
2013-01-24 22:02:00,26.0,16.0,30.11,West,262,0.0,-999.0,50,0.00,,,0.00,Custom/Perl,2013-01-25 04:02:00,
2013-01-24 22:07:00,26.0,16.0,30.11,WNW,302,0.0,-999.0,50,0.00,,,0.00,Custom/Perl,2013-01-25 04:07:00,
2013-01-24 22:12:00,26.1,16.1,30.11,WNW,303,0.0,-999.0,50,0.00,,,0.00,Custom/Perl,2013-01-25 04:12:00,
2013-01-24 22:17:00,26.1,16.1,30.11,West,262,0.0,-999.0,50,0.00,,,0.00,Custom/Perl,2013-01-25 04:17:00,
2013-01-24 22:22:00,26.1,16.1,30.10,West,276,0.0,-999.0,50,0.00,,,0.00,Custom/Perl,2013-01-25 04:22:00,
2013-01-24 22:28:00,26.0,16.0,30.09,West,260,0.0,-999.0,50,0.00,,,0.00,Custom/Perl,2013-01-25 04:28:00,
2013-01-24 22:33:00,26.0,16.0,30.09,SW,230,0.0,-999.0,50,0.00,,,0.00,Custom/Perl,2013-01-25 04:33:00,
2013-01-24 22:38:00,26.0,16.2,30.09,WSW,258,0.0,-999.0,51,0.00,,,0.00,Custom/Perl,2013-01-25 04:38:00,
2013-01-24 22:43:00,26.0,16.0,30.09,SW,222,0.0,-999.0,50,0.00,,,0.00,Custom/Perl,2013-01-25 04:43:00,
2013-01-24 22:49:00,26.1,16.1,30.09,West,265,0.0,-999.0,50,0.00,,,0.00,Custom/Perl,2013-01-25 04:49:00,
2013-01-24 22:54:00,26.1,16.3,30.10,West,275,0.0,-999.0,51,0.00,,,0.00,Custom/Perl,2013-01-25 04:54:00,
2013-01-24 22:59:00,26.1,16.1,30.09,WNW,283,0.0,-999.0,50,0.00,,,0.00,Custom/Perl,2013-01-25 04:59:00,
2013-01-24 23:00:00,26.1,16.1,30.09,WNW,283,0.0,-999.0,50,0.00,,,0.00,Custom/Perl,2013-01-25 05:00:00,
2013-01-24 23:02:00,26.1,16.3,30.09,West,276,0.0,-999.0,51,0.00,,,0.00,Custom/Perl,2013-01-25 05:02:00,
2013-01-24 23:04:00,26.1,16.3,30.09,West,276,0.0,-999.0,51,0.00,,,0.00,Custom/Perl,2013-01-25 05:04:00,
2013-01-24 23:10:00,26.1,16.1,30.10,SW,229,0.0,-999.0,50,0.00,,,0.00,Custom/Perl,2013-01-25 05:10:00,
2013-01-24 23:15:00,26.1,16.3,30.09,WNW,285,0.0,-999.0,51,0.00,,,0.00,Custom/Perl,2013-01-25 05:15:00,
2013-01-24 23:20:00,26.1,16.3,30.09,West,273,0.0,-999.0,51,0.00,,,0.00,Custom/Perl,2013-01-25 05:20:00,
2013-01-24 23:25:00,26.1,16.3,30.09,West,269,0.0,-999.0,51,0.00,,,0.00,Custom/Perl,2013-01-25 05:25:00,
2013-01-24 23:30:00,26.2,16.4,30.09,West,268,0.0,-999.0,51,0.00,,,0.00,Custom/Perl,2013-01-25 05:30:00,
2013-01-24 23:36:00,26.2,16.4,30.10,WSW,254,0.0,-999.0,51,0.00,,,0.00,Custom/Perl,2013-01-25 05:36:00,
2013-01-24 23:41:00,26.2,16.4,30.10,West,259,0.0,-999.0,51,0.00,,,0.00,Custom/Perl,2013-01-25 05:41:00,
2013-01-24 23:46:00,26.2,16.4,30.09,West,259,0.0,-999.0,51,0.00,,,0.00,Custom/Perl,2013-01-25 05:46:00,
2013-01-24 23:51:00,26.2,16.4,30.09,West,261,0.0,-999.0,51,0.00,,,0.00,Custom/Perl,2013-01-25 05:51:00,
2013-01-24 23:56:00,26.3,16.5,30.10,West,274,0.0,-999.0,51,0.00,,,0.00,Custom/Perl,2013-01-25 05:56:00,